sat.trackr.live / text

‹ back to catalog

HAWK-10C

NORAD 60575 · 2024-149DM

PAYLOAD ACTIVE UNKNOWN

§ Identity

Operator
Country
US
Launch date
2024-08-16
Launch site
AFWTR
Launch vehicle
Mass (kg)
RCS (m²)

External: N2YO · Heavens-Above · Gunter

§ Orbital elements

Epoch: 2026-05-25T02:25:49.894752Z

Period
96.23 min
Inclination
97.6740°
Eccentricity
0.0004675
Mean motion
14.96431887 rev/d
Perigee alt
574.7 km
Apogee alt
581.2 km
Semi-major
6,956.1 km
B*
1.3732e-4
RAAN
220.1509°
Arg perigee
121.1784°
Mean anomaly
238.9896°
Rev number
9,653

§ Raw data

HAWK-10C1 60575U 24149DM  26145.10127193  .00001500  00000+0  13732-3 0  99992 60575  97.6740 220.1509 0004675 121.1784 238.9896 14.96431887 96532

JSON: /api/v1/satellites/60575 · /tle

For live sub-satellite position, see the globe view (requires WebGL).

§ Visibility from observer

Set your observer location to see the next 7 days of passes ≥ 10°. The values pass through the URL so the page stays shareable.

No JS? Fill the form by hand. The geolocation button needs JavaScript.